Location: Shenandoah County Park
(38.9356°N, 78.4524°W)
Time: 06:47:26
(UTC-04:00)

Explorer 11/Cluster Stage 4 - Pass Details

Date: 27 February 2024
Orbit: 465 x 1220 km, 28.8° (Epoch: 12 April)

Event Time Altitude Azimuth Distance (km) Brightness Sun altitude
Rises 02:27:46 0° 255° (WSW) 4,131 - -49.2°
Reaches altitude 10° 02:30:56 10° 248° (WSW) 3,147 - -48.7°
Maximum altitude 02:38:06 38° 184° (S) 1,665 - -47.6°
Drops below altitude 10° 02:44:32 10° 119° (ESE) 2,821 - -46.6°
Exits shadow 02:45:46 - 114° (ESE) 3,196 9.9 -46.4°
Sets 02:47:14 0° 111° (ESE) 3,663 10.3 -46.2°
